Time,TemperatureF,DewpointF,PressureIn,WindDirection,WindDirectionDegrees,WindSpeedMPH,WindSpeedGustMPH,Humidity,HourlyPrecipIn,Conditions,Clouds,dailyrainin,SolarRadiationWatts/m^2,SoftwareType,DateUTC
2012-09-12 00:00:00,74.1,69.3,30.12,ENE,62,2.0,7.0,85,0.01,,---,0.05,0.00,VWS V14.01,2012-09-12 04:00:00,
2012-09-12 00:01:00,74.1,69.3,30.12,ENE,71,1.0,7.0,85,0.01,,---,0.05,0.00,VWS V14.01,2012-09-12 04:01:00,
2012-09-12 00:06:00,74.0,69.6,30.12,NNE,29,0.0,7.0,86,0.01,,---,0.05,0.00,VWS V14.01,2012-09-12 04:06:00,
2012-09-12 00:11:00,73.9,69.4,30.12,East,79,3.0,6.0,86,0.01,,---,0.00,0.00,VWS V14.01,2012-09-12 04:11:00,
2012-09-12 00:16:00,73.8,69.0,30.12,East,81,1.0,6.0,85,0.01,,---,0.00,0.00,VWS V14.01,2012-09-12 04:16:00,
2012-09-12 00:21:00,73.7,68.9,30.12,North,356,1.0,6.0,85,0.01,,---,0.00,0.00,VWS V14.01,2012-09-12 04:21:00,
2012-09-12 00:26:00,73.7,68.9,30.12,NE,48,0.0,6.0,85,0.01,,---,0.00,0.00,VWS V14.01,2012-09-12 04:26:00,
2012-09-12 00:31:00,73.6,68.8,30.11,ENE,65,4.0,6.0,85,0.01,,---,0.00,0.00,VWS V14.01,2012-09-12 04:31:00,
2012-09-12 00:36:00,73.5,68.7,30.11,NE,50,0.0,6.0,85,0.01,,---,0.00,0.00,VWS V14.01,2012-09-12 04:36:00,
2012-09-12 00:41:00,73.4,68.6,30.11,NE,53,1.0,6.0,85,0.01,,---,0.00,0.00,VWS V14.01,2012-09-12 04:41:00,
2012-09-12 00:46:00,73.3,68.9,30.11,North,360,0.0,6.0,86,0.01,,---,0.00,0.00,VWS V14.01,2012-09-12 04:46:00,
2012-09-12 00:51:00,73.3,68.9,30.11,NE,50,1.0,6.0,86,0.01,,---,0.00,0.00,VWS V14.01,2012-09-12 04:51:00,
2012-09-12 00:56:00,73.1,68.7,30.11,East,95,1.0,6.0,86,0.01,,---,0.00,0.00,VWS V14.01,2012-09-12 04:56:00,
2012-09-12 01:00:00,74.0,69.6,30.12,ENE,62,3.0,7.0,86,0.01,,---,0.05,0.00,VWS V14.01,2012-09-12 05:00:00,
2012-09-12 01:01:00,73.0,68.6,30.11,NE,54,0.0,6.0,86,0.01,,---,0.00,0.00,VWS V14.01,2012-09-12 05:01:00,
2012-09-12 01:06:00,73.0,68.6,30.11,ENE,68,2.0,6.0,86,0.01,,---,0.00,0.00,VWS V14.01,2012-09-12 05:06:00,
2012-09-12 01:11:00,72.9,68.5,30.11,East,89,2.0,4.0,86,0.00,,---,0.00,0.00,VWS V14.01,2012-09-12 05:11:00,
2012-09-12 01:16:00,72.8,68.4,30.11,NE,56,0.0,4.0,86,0.00,,---,0.00,0.00,VWS V14.01,2012-09-12 05:16:00,
2012-09-12 01:21:00,72.7,68.6,30.11,ENE,71,1.0,4.0,87,0.00,,---,0.00,0.00,VWS V14.01,2012-09-12 05:21:00,
2012-09-12 01:26:00,72.7,68.6,30.11,ENE,67,3.0,4.0,87,0.00,,---,0.00,0.00,VWS V14.01,2012-09-12 05:26:00,
2012-09-12 01:31:00,72.6,68.2,30.11,NE,44,2.0,4.0,86,0.00,,---,0.00,0.00,VWS V14.01,2012-09-12 05:31:00,
2012-09-12 01:36:00,72.6,68.2,30.10,NE,55,1.0,4.0,86,0.00,,---,0.00,0.00,VWS V14.01,2012-09-12 05:36:00,
2012-09-12 01:41:00,72.5,68.1,30.10,NNE,33,1.0,4.0,86,0.00,,---,0.00,0.00,VWS V14.01,2012-09-12 05:41:00,
2012-09-12 01:46:00,72.5,68.1,30.10,ENE,64,2.0,4.0,86,0.00,,---,0.00,0.00,VWS V14.01,2012-09-12 05:46:00,
2012-09-12 01:51:00,72.5,68.4,30.10,ENE,72,0.0,4.0,87,0.00,,---,0.00,0.00,VWS V14.01,2012-09-12 05:51:00,
2012-09-12 01:56:00,72.4,68.3,30.10,NE,54,1.0,4.0,87,0.00,,---,0.00,0.00,VWS V14.01,2012-09-12 05:56:00,
2012-09-12 02:00:00,73.0,68.6,30.11,NNE,33,0.0,6.0,86,0.01,,---,0.00,0.00,VWS V14.01,2012-09-12 06:00:00,
2012-09-12 02:01:00,72.4,68.0,30.09,ESE,102,0.0,4.0,86,0.00,,---,0.00,0.00,VWS V14.01,2012-09-12 06:01:00,
2012-09-12 02:06:00,72.4,68.0,30.09,East,82,2.0,4.0,86,0.00,,---,0.00,0.00,VWS V14.01,2012-09-12 06:06:00,
2012-09-12 02:11:00,72.3,67.9,30.09,ENE,72,0.0,3.0,86,0.00,,---,0.00,0.00,VWS V14.01,2012-09-12 06:11:00,
2012-09-12 02:17:00,72.3,67.9,30.09,NE,52,3.0,5.0,86,0.00,,---,0.00,0.00,VWS V14.01,2012-09-12 06:17:00,
2012-09-12 02:22:00,72.3,67.9,30.09,NNE,31,2.0,6.0,86,0.00,,---,0.00,0.00,VWS V14.01,2012-09-12 06:22:00,
2012-09-12 02:27:00,72.4,68.3,30.09,NE,55,6.0,6.0,87,0.00,,---,0.00,0.00,VWS V14.01,2012-09-12 06:27:00,
2012-09-12 02:32:00,72.3,67.9,30.09,ENE,75,3.0,6.0,86,0.00,,---,0.00,0.00,VWS V14.01,2012-09-12 06:32:00,
2012-09-12 02:37:00,72.3,67.9,30.09,East,100,2.0,6.0,86,0.00,,---,0.00,0.00,VWS V14.01,2012-09-12 06:37:00,
2012-09-12 02:42:00,72.4,68.3,30.09,NNE,25,0.0,6.0,87,0.00,,---,0.00,0.00,VWS V14.01,2012-09-12 06:42:00,
2012-09-12 02:47:00,72.3,67.9,30.09,NE,51,1.0,6.0,86,0.00,,---,0.00,0.00,VWS V14.01,2012-09-12 06:47:00,
2012-09-12 02:52:00,72.3,67.9,30.09,NNE,27,5.0,6.0,86,0.00,,---,0.00,0.00,VWS V14.01,2012-09-12 06:52:00,
2012-09-12 02:57:00,72.3,67.9,30.08,East,82,1.0,7.0,86,0.00,,---,0.00,0.00,VWS V14.01,2012-09-12 06:57:00,
2012-09-12 03:00:00,72.3,67.9,30.09,East,87,2.0,4.0,86,0.00,,---,0.00,0.00,VWS V14.01,2012-09-12 07:00:00,
2012-09-12 03:02:00,72.3,67.9,30.08,ENE,66,2.0,7.0,86,0.00,,---,0.00,0.00,VWS V14.01,2012-09-12 07:02:00,
2012-09-12 03:07:00,72.2,68.1,30.08,NE,51,0.0,7.0,87,0.00,,---,0.00,0.00,VWS V14.01,2012-09-12 07:07:00,
2012-09-12 03:12:00,72.2,68.1,30.08,East,97,0.0,3.0,87,0.00,,---,0.00,0.00,VWS V14.01,2012-09-12 07:12:00,
2012-09-12 03:17:00,72.1,68.0,30.08,NE,51,0.0,5.0,87,0.00,,---,0.00,0.00,VWS V14.01,2012-09-12 07:17:00,
2012-09-12 03:22:00,72.0,67.9,30.08,ENE,68,2.0,5.0,87,0.00,,---,0.00,0.00,VWS V14.01,2012-09-12 07:22:00,
2012-09-12 03:27:00,72.1,68.0,30.08,ENE,57,2.0,5.0,87,0.00,,---,0.00,0.00,VWS V14.01,2012-09-12 07:27:00,
2012-09-12 03:32:00,72.1,68.0,30.08,ENE,78,2.0,5.0,87,0.00,,---,0.00,0.00,VWS V14.01,2012-09-12 07:32:00,
2012-09-12 03:37:00,72.1,68.0,30.08,NE,41,0.0,5.0,87,0.00,,---,0.00,0.00,VWS V14.01,2012-09-12 07:37:00,
2012-09-12 03:42:00,72.1,68.0,30.08,NE,53,3.0,5.0,87,0.00,,---,0.00,0.00,VWS V14.01,2012-09-12 07:42:00,
2012-09-12 03:47:00,72.1,68.0,30.08,ENE,58,2.0,5.0,87,0.00,,---,0.00,0.00,VWS V14.01,2012-09-12 07:47:00,
2012-09-12 03:52:00,72.1,68.0,30.07,ENE,70,0.0,5.0,87,0.00,,---,0.00,0.00,VWS V14.01,2012-09-12 07:52:00,
2012-09-12 03:57:00,72.0,67.9,30.07,NNE,21,1.0,5.0,87,0.00,,---,0.00,0.00,VWS V14.01,2012-09-12 07:57:00,
2012-09-12 04:00:00,72.3,68.2,30.08,SE,129,0.0,7.0,87,0.00,,---,0.00,0.00,VWS V14.01,2012-09-12 08:00:00,
2012-09-12 04:02:00,72.0,68.3,30.07,ENE,58,0.0,5.0,88,0.00,,---,0.00,0.00,VWS V14.01,2012-09-12 08:02:00,
2012-09-12 04:07:00,71.9,68.2,30.07,ENE,70,2.0,5.0,88,0.00,,---,0.00,0.00,VWS V14.01,2012-09-12 08:07:00,
2012-09-12 04:12:00,71.9,68.2,30.07,ENE,70,2.0,4.0,88,0.00,,---,0.00,0.00,VWS V14.01,2012-09-12 08:12:00,
2012-09-12 04:17:00,71.9,68.2,30.07,ENE,72,0.0,4.0,88,0.00,,---,0.00,0.00,VWS V14.01,2012-09-12 08:17:00,
2012-09-12 04:22:00,71.9,68.2,30.07,NW,319,0.0,4.0,88,0.00,,---,0.00,0.00,VWS V14.01,2012-09-12 08:22:00,
2012-09-12 04:27:00,71.9,68.2,30.07,ENE,59,2.0,5.0,88,0.00,,---,0.00,0.00,VWS V14.01,2012-09-12 08:27:00,
2012-09-12 04:32:00,72.0,68.3,30.07,NNE,22,1.0,5.0,88,0.00,,---,0.00,0.00,VWS V14.01,2012-09-12 08:32:00,
2012-09-12 04:37:00,72.0,68.3,30.07,ENE,61,2.0,5.0,88,0.00,,---,0.00,0.00,VWS V14.01,2012-09-12 08:37:00,
2012-09-12 04:42:00,72.0,68.3,30.07,East,92,2.0,5.0,88,0.00,,---,0.00,0.00,VWS V14.01,2012-09-12 08:42:00,
2012-09-12 04:47:00,71.9,68.2,30.07,NE,53,0.0,5.0,88,0.00,,---,0.00,0.00,VWS V14.01,2012-09-12 08:47:00,
2012-09-12 04:52:00,71.9,68.5,30.07,NE,50,1.0,5.0,89,0.00,,---,0.00,0.00,VWS V14.01,2012-09-12 08:52:00,
2012-09-12 04:57:00,71.8,68.4,30.07,ENE,59,0.0,5.0,89,0.00,,---,0.00,0.00,VWS V14.01,2012-09-12 08:57:00,
2012-09-12 05:00:00,71.9,68.2,30.07,ENE,70,0.0,5.0,88,0.00,,---,0.00,0.00,VWS V14.01,2012-09-12 09:00:00,
2012-09-12 05:02:00,71.7,68.3,30.07,NE,55,0.0,5.0,89,0.00,,---,0.00,0.00,VWS V14.01,2012-09-12 09:02:00,
2012-09-12 05:07:00,71.7,68.3,30.07,NE,47,2.0,5.0,89,0.00,,---,0.00,0.00,VWS V14.01,2012-09-12 09:07:00,
2012-09-12 05:12:00,71.6,68.2,30.07,ENE,66,1.0,3.0,89,0.00,,---,0.00,0.00,VWS V14.01,2012-09-12 09:12:00,
2012-09-12 05:17:00,71.6,68.2,30.07,ENE,57,1.0,4.0,89,0.00,,---,0.00,0.00,VWS V14.01,2012-09-12 09:17:00,
2012-09-12 05:22:00,71.6,68.2,30.07,North,1,0.0,4.0,89,0.00,,---,0.00,0.00,VWS V14.01,2012-09-12 09:22:00,
2012-09-12 05:27:00,71.6,68.2,30.07,NE,35,3.0,4.0,89,0.00,,---,0.00,0.00,VWS V14.01,2012-09-12 09:27:00,
2012-09-12 05:32:00,71.6,68.2,30.07,ENE,60,2.0,4.0,89,0.00,,---,0.00,0.00,VWS V14.01,2012-09-12 09:32:00,
2012-09-12 05:37:00,71.5,68.4,30.07,East,80,0.0,4.0,90,0.00,,---,0.00,0.00,VWS V14.01,2012-09-12 09:37:00,
2012-09-12 05:42:00,71.5,68.4,30.08,East,81,2.0,5.0,90,0.00,,---,0.00,0.00,VWS V14.01,2012-09-12 09:42:00,
2012-09-12 05:47:00,71.6,68.2,30.08,NNE,30,1.0,5.0,89,0.00,,---,0.00,0.00,VWS V14.01,2012-09-12 09:47:00,
2012-09-12 05:52:00,71.7,68.3,30.08,North,9,3.0,7.0,89,0.00,,---,0.00,0.00,VWS V14.01,2012-09-12 09:52:00,
2012-09-12 05:58:00,71.8,68.4,30.08,NNE,12,5.0,7.0,89,0.00,,---,0.00,0.00,VWS V14.01,2012-09-12 09:58:00,
2012-09-12 06:00:00,71.7,68.3,30.07,ENE,61,0.0,5.0,89,0.00,,---,0.00,0.00,VWS V14.01,2012-09-12 10:00:00,
2012-09-12 06:03:00,71.9,68.5,30.08,NE,40,4.0,7.0,89,0.00,,---,0.00,0.00,VWS V14.01,2012-09-12 10:03:00,
2012-09-12 06:08:00,72.0,68.6,30.08,ENE,77,1.0,1.0,89,0.00,,---,0.00,0.00,VWS V14.01,2012-09-12 10:08:00,
2012-09-12 06:13:00,72.1,68.7,30.08,SE,143,2.0,4.0,89,0.00,,---,0.00,0.00,VWS V14.01,2012-09-12 10:13:00,
2012-09-12 06:18:00,72.2,68.8,30.08,ENE,62,1.0,4.0,89,0.00,,---,0.00,0.00,VWS V14.01,2012-09-12 10:18:00,
2012-09-12 06:23:00,72.2,68.8,30.09,ENE,57,3.0,4.0,89,0.00,,---,0.00,0.00,VWS V14.01,2012-09-12 10:23:00,
2012-09-12 06:28:00,72.2,68.8,30.09,NE,46,4.0,6.0,89,0.00,,---,0.00,0.00,VWS V14.01,2012-09-12 10:28:00,
2012-09-12 06:33:00,72.3,68.9,30.09,NE,48,0.0,6.0,89,0.00,,---,0.00,0.00,VWS V14.01,2012-09-12 10:33:00,
2012-09-12 06:38:00,72.3,68.9,30.09,NE,39,1.0,6.0,89,0.00,,---,0.00,0.00,VWS V14.01,2012-09-12 10:38:00,
2012-09-12 06:43:00,72.3,68.9,30.09,ENE,58,0.0,6.0,89,0.00,,---,0.00,0.00,VWS V14.01,2012-09-12 10:43:00,
2012-09-12 06:48:00,72.3,68.9,30.09,West,266,0.0,6.0,89,0.00,,---,0.00,0.00,VWS V14.01,2012-09-12 10:48:00,
2012-09-12 06:53:00,72.3,69.2,30.10,ENE,60,0.0,6.0,90,0.00,,---,0.00,0.00,VWS V14.01,2012-09-12 10:53:00,
2012-09-12 06:58:00,72.2,69.1,30.10,NE,48,1.0,6.0,90,0.00,,---,0.00,0.00,VWS V14.01,2012-09-12 10:58:00,
2012-09-12 07:00:00,72.0,68.6,30.08,ENE,77,1.0,7.0,89,0.00,,---,0.00,0.00,VWS V14.01,2012-09-12 11:00:00,
2012-09-12 07:03:00,72.1,69.0,30.10,East,79,3.0,6.0,90,0.00,,---,0.00,0.00,VWS V14.01,2012-09-12 11:03:00,
2012-09-12 07:08:00,72.1,69.0,30.10,ESE,121,2.0,6.0,90,0.00,,---,0.00,0.00,VWS V14.01,2012-09-12 11:08:00,
2012-09-12 07:13:00,72.1,69.0,30.10,NE,45,2.0,5.0,90,0.00,,---,0.00,0.00,VWS V14.01,2012-09-12 11:13:00,
2012-09-12 07:18:00,72.1,69.0,30.10,ENE,75,1.0,5.0,90,0.00,,---,0.00,5.00,VWS V14.01,2012-09-12 11:18:00,
2012-09-12 07:23:00,72.1,69.0,30.10,ENE,65,4.0,5.0,90,0.00,,---,0.00,9.00,VWS V14.01,2012-09-12 11:23:00,
2012-09-12 07:28:00,72.1,69.0,30.10,ENE,64,1.0,5.0,90,0.00,,---,0.00,14.00,VWS V14.01,2012-09-12 11:28:00,
2012-09-12 07:33:00,72.2,69.1,30.11,ENE,78,1.0,6.0,90,0.00,,---,0.00,19.00,VWS V14.01,2012-09-12 11:33:00,
2012-09-12 07:38:00,72.3,69.2,30.11,ENE,64,2.0,6.0,90,0.00,,---,0.00,21.00,VWS V14.01,2012-09-12 11:38:00,
2012-09-12 07:43:00,72.4,69.3,30.11,ENE,67,0.0,6.0,90,0.00,,---,0.00,26.00,VWS V14.01,2012-09-12 11:43:00,
2012-09-12 07:48:00,72.5,69.4,30.11,ENE,76,0.0,6.0,90,0.00,,---,0.00,33.00,VWS V14.01,2012-09-12 11:48:00,
2012-09-12 07:53:00,72.6,69.5,30.11,ESE,106,2.0,6.0,90,0.00,,---,0.00,37.00,VWS V14.01,2012-09-12 11:53:00,
2012-09-12 07:58:00,72.8,69.7,30.11,NE,54,0.0,6.0,90,0.00,,---,0.00,49.00,VWS V14.01,2012-09-12 11:58:00,
2012-09-12 08:00:00,72.1,69.0,30.10,ESE,121,2.0,6.0,90,0.00,,---,0.00,0.00,VWS V14.01,2012-09-12 12:00:00,
2012-09-12 08:03:00,72.9,69.8,30.11,ENE,74,2.0,7.0,90,0.00,,---,0.00,60.00,VWS V14.01,2012-09-12 12:03:00,
2012-09-12 08:08:00,73.1,70.0,30.11,ENE,58,0.0,0.0,90,0.00,,---,0.00,65.00,VWS V14.01,2012-09-12 12:08:00,
2012-09-12 08:13:00,73.4,70.3,30.12,ENE,57,1.0,3.0,90,0.00,,---,0.00,90.00,VWS V14.01,2012-09-12 12:13:00,
2012-09-12 08:18:00,73.7,70.6,30.12,ENE,74,0.0,5.0,90,0.00,,---,0.00,56.00,VWS V14.01,2012-09-12 12:18:00,
2012-09-12 08:23:00,73.9,70.5,30.12,NE,34,4.0,6.0,89,0.00,,---,0.00,100.00,VWS V14.01,2012-09-12 12:23:00,
2012-09-12 08:28:00,74.2,70.8,30.11,ENE,68,5.0,6.0,89,0.00,,---,0.00,88.00,VWS V14.01,2012-09-12 12:28:00,
2012-09-12 08:33:00,74.6,70.8,30.12,East,87,0.0,6.0,88,0.00,,---,0.00,120.00,VWS V14.01,2012-09-12 12:33:00,
2012-09-12 08:38:00,75.0,71.2,30.12,ENE,75,1.0,6.0,88,0.00,,---,0.00,111.00,VWS V14.01,2012-09-12 12:38:00,
2012-09-12 08:43:00,75.4,71.3,30.12,East,88,1.0,6.0,87,0.00,,---,0.00,111.00,VWS V14.01,2012-09-12 12:43:00,
2012-09-12 08:48:00,75.8,71.7,30.12,ENE,60,0.0,6.0,87,0.00,,---,0.00,185.00,VWS V14.01,2012-09-12 12:48:00,
2012-09-12 08:53:00,76.2,71.7,30.12,East,90,1.0,7.0,86,0.00,,---,0.00,137.00,VWS V14.01,2012-09-12 12:53:00,
2012-09-12 08:58:00,76.6,71.8,30.12,ENE,72,2.0,7.0,85,0.00,,---,0.00,156.00,VWS V14.01,2012-09-12 12:58:00,
2012-09-12 09:00:00,73.1,70.0,30.11,ENE,58,0.0,7.0,90,0.00,,---,0.00,65.00,VWS V14.01,2012-09-12 13:00:00,
2012-09-12 09:03:00,77.0,72.2,30.12,NE,36,4.0,7.0,85,0.00,,---,0.00,160.00,VWS V14.01,2012-09-12 13:03:00,
2012-09-12 09:08:00,77.4,72.2,30.12,ESE,118,0.0,1.0,84,0.00,,---,0.00,285.00,VWS V14.01,2012-09-12 13:08:00,
2012-09-12 09:13:00,77.9,72.7,30.12,NE,43,4.0,5.0,84,0.00,,---,0.00,237.00,VWS V14.01,2012-09-12 13:13:00,
2012-09-12 09:18:00,78.2,72.6,30.12,SE,131,0.0,8.0,83,0.00,,---,0.00,155.00,VWS V14.01,2012-09-12 13:18:00,
2012-09-12 09:23:00,78.6,72.7,30.12,East,95,1.0,8.0,82,0.00,,---,0.00,169.00,VWS V14.01,2012-09-12 13:23:00,
2012-09-12 09:28:00,79.1,73.8,30.12,NNE,17,0.0,8.0,84,0.00,,---,0.00,308.00,VWS V14.01,2012-09-12 13:28:00,
2012-09-12 09:33:00,79.4,72.7,30.12,SE,145,2.0,8.0,80,0.00,,---,0.00,383.00,VWS V14.01,2012-09-12 13:33:00,
2012-09-12 09:38:00,79.7,73.4,30.12,SE,132,7.0,8.0,81,0.00,,---,0.00,438.00,VWS V14.01,2012-09-12 13:38:00,
2012-09-12 09:43:00,79.9,72.4,30.13,NNW,345,5.0,10.0,78,0.00,,---,0.00,441.00,VWS V14.01,2012-09-12 13:43:00,
2012-09-12 09:48:00,80.1,72.6,30.12,North,358,1.0,10.0,78,0.00,,---,0.00,473.00,VWS V14.01,2012-09-12 13:48:00,
2012-09-12 09:53:00,80.4,72.9,30.12,ENE,64,7.0,10.0,78,0.00,,---,0.00,473.00,VWS V14.01,2012-09-12 13:53:00,
2012-09-12 09:58:00,80.6,72.7,30.12,ENE,66,4.0,10.0,77,0.00,,---,0.00,501.00,VWS V14.01,2012-09-12 13:58:00,
2012-09-12 10:00:00,77.3,72.1,30.12,ESE,118,1.0,7.0,84,0.00,,---,0.00,285.00,VWS V14.01,2012-09-12 14:00:00,
2012-09-12 10:03:00,81.1,73.2,30.12,NNE,27,2.0,10.0,77,0.00,,---,0.00,526.00,VWS V14.01,2012-09-12 14:03:00,
2012-09-12 10:08:00,81.3,73.0,30.12,East,97,1.0,2.0,76,0.00,,---,0.00,545.00,VWS V14.01,2012-09-12 14:08:00,
2012-09-12 10:13:00,81.6,73.3,30.12,North,355,1.0,6.0,76,0.00,,---,0.00,563.00,VWS V14.01,2012-09-12 14:13:00,
2012-09-12 10:18:00,82.0,73.7,30.12,East,86,2.0,11.0,76,0.00,,---,0.00,445.00,VWS V14.01,2012-09-12 14:18:00,
2012-09-12 10:23:00,82.5,73.8,30.12,WNW,299,0.0,11.0,75,0.00,,---,0.00,204.00,VWS V14.01,2012-09-12 14:23:00,
2012-09-12 10:28:00,82.7,73.6,30.12,SSE,159,0.0,11.0,74,0.00,,---,0.00,204.00,VWS V14.01,2012-09-12 14:28:00,
2012-09-12 10:33:00,82.6,73.1,30.13,North,8,5.0,11.0,73,0.00,,---,0.00,501.00,VWS V14.01,2012-09-12 14:33:00,
2012-09-12 10:38:00,82.5,72.6,30.13,East,87,4.0,11.0,72,0.00,,---,0.00,566.00,VWS V14.01,2012-09-12 14:38:00,
2012-09-12 10:43:00,82.7,73.2,30.13,ENE,57,3.0,11.0,73,0.00,,---,0.00,661.00,VWS V14.01,2012-09-12 14:43:00,
2012-09-12 10:48:00,83.0,73.9,30.13,SE,136,1.0,11.0,74,0.00,,---,0.00,689.00,VWS V14.01,2012-09-12 14:48:00,
2012-09-12 10:53:00,83.7,73.7,30.13,East,87,3.0,11.0,72,0.00,,---,0.00,696.00,VWS V14.01,2012-09-12 14:53:00,
2012-09-12 10:58:00,84.2,73.8,30.13,NNE,19,1.0,11.0,71,0.00,,---,0.00,705.00,VWS V14.01,2012-09-12 14:58:00,
2012-09-12 11:00:00,81.3,72.6,30.12,NE,41,1.0,10.0,75,0.00,,---,0.00,540.00,VWS V14.01,2012-09-12 15:00:00,
2012-09-12 11:04:00,84.1,73.7,30.13,NNE,29,4.0,11.0,71,0.01,,---,0.01,722.00,VWS V14.01,2012-09-12 15:04:00,
2012-09-12 11:09:00,83.8,72.6,30.13,ENE,60,3.0,4.0,69,0.01,,---,0.01,744.00,VWS V14.01,2012-09-12 15:09:00,
2012-09-12 11:14:00,83.9,72.7,30.13,SE,133,2.0,8.0,69,0.01,,---,0.01,745.00,VWS V14.01,2012-09-12 15:14:00,
2012-09-12 11:19:00,84.0,72.3,30.13,NNE,33,2.0,8.0,68,0.01,,---,0.01,768.00,VWS V14.01,2012-09-12 15:19:00,
2012-09-12 11:24:00,84.7,73.8,30.12,ENE,76,1.0,8.0,70,0.01,,---,0.01,786.00,VWS V14.01,2012-09-12 15:24:00,
2012-09-12 11:29:00,85.1,72.5,30.13,East,89,3.0,8.0,66,0.01,,---,0.01,802.00,VWS V14.01,2012-09-12 15:29:00,
2012-09-12 11:34:00,85.4,72.8,30.13,East,84,2.0,8.0,66,0.01,,---,0.01,821.00,VWS V14.01,2012-09-12 15:34:00,
2012-09-12 11:39:00,85.4,71.8,30.12,North,356,2.0,8.0,64,0.01,,---,0.01,831.00,VWS V14.01,2012-09-12 15:39:00,
2012-09-12 11:44:00,85.4,72.8,30.13,ESE,112,3.0,9.0,66,0.01,,---,0.01,882.00,VWS V14.01,2012-09-12 15:44:00,
2012-09-12 11:49:00,85.5,72.8,30.13,ESE,116,3.0,10.0,66,0.01,,---,0.01,872.00,VWS V14.01,2012-09-12 15:49:00,
2012-09-12 11:54:00,85.8,72.2,30.13,SSE,156,4.0,10.0,64,0.01,,---,0.01,911.00,VWS V14.01,2012-09-12 15:54:00,
2012-09-12 11:59:00,85.4,72.3,30.12,ENE,61,7.0,10.0,65,0.01,,---,0.01,679.00,VWS V14.01,2012-09-12 15:59:00,
2012-09-12 12:00:00,83.9,72.7,30.13,NE,41,0.0,11.0,69,0.01,,---,0.01,729.00,VWS V14.01,2012-09-12 16:00:00,
2012-09-12 12:04:00,85.1,72.0,30.12,SE,129,4.0,10.0,65,0.01,,---,0.01,679.00,VWS V14.01,2012-09-12 16:04:00,
2012-09-12 12:09:00,86.0,73.3,30.13,SSE,164,1.0,8.0,66,0.00,,---,0.01,1000.00,VWS V14.01,2012-09-12 16:09:00,
2012-09-12 12:14:00,86.4,73.2,30.12,SE,135,4.0,8.0,65,0.00,,---,0.01,972.00,VWS V14.01,2012-09-12 16:14:00,
2012-09-12 12:19:00,86.3,73.2,30.12,ESE,122,7.0,8.0,65,0.00,,---,0.01,1074.00,VWS V14.01,2012-09-12 16:19:00,
2012-09-12 12:24:00,86.6,73.0,30.12,East,91,3.0,10.0,64,0.00,,---,0.01,381.00,VWS V14.01,2012-09-12 16:24:00,
2012-09-12 12:29:00,85.8,73.1,30.12,ENE,66,0.0,10.0,66,0.00,,---,0.01,142.00,VWS V14.01,2012-09-12 16:29:00,
2012-09-12 12:34:00,84.9,73.2,30.12,East,97,3.0,10.0,68,0.00,,---,0.01,223.00,VWS V14.01,2012-09-12 16:34:00,
2012-09-12 12:39:00,84.9,73.2,30.12,SE,127,6.0,10.0,68,0.00,,---,0.01,220.00,VWS V14.01,2012-09-12 16:39:00,
2012-09-12 12:44:00,86.2,73.5,30.12,North,360,1.0,10.0,66,0.00,,---,0.01,1109.00,VWS V14.01,2012-09-12 16:44:00,
2012-09-12 12:49:00,85.5,72.8,30.11,ESE,116,3.0,10.0,66,0.00,,---,0.01,334.00,VWS V14.01,2012-09-12 16:49:00,
2012-09-12 12:54:00,85.0,73.7,30.12,SE,135,1.0,10.0,69,0.00,,---,0.01,185.00,VWS V14.01,2012-09-12 16:54:00,
2012-09-12 12:59:00,85.9,73.7,30.11,NE,54,7.0,10.0,67,0.00,,---,0.01,1000.00,VWS V14.01,2012-09-12 16:59:00,
2012-09-12 13:00:00,85.7,72.1,30.12,ENE,70,3.0,10.0,64,0.01,,---,0.01,1000.00,VWS V14.01,2012-09-12 17:00:00,
2012-09-12 13:04:00,86.6,73.9,30.11,ESE,109,3.0,10.0,66,0.00,,---,0.01,969.00,VWS V14.01,2012-09-12 17:04:00,
2012-09-12 13:09:00,87.6,73.9,30.10,East,80,2.0,6.0,64,0.00,,---,0.01,970.00,VWS V14.01,2012-09-12 17:09:00,
2012-09-12 13:14:00,87.9,73.7,30.10,NNE,33,5.0,9.0,63,0.00,,---,0.01,981.00,VWS V14.01,2012-09-12 17:14:00,
2012-09-12 13:19:00,86.7,74.0,30.10,SSE,167,1.0,9.0,66,0.00,,---,0.01,244.00,VWS V14.01,2012-09-12 17:19:00,
2012-09-12 13:24:00,87.5,74.3,30.10,North,3,1.0,9.0,65,0.00,,---,0.01,1051.00,VWS V14.01,2012-09-12 17:24:00,
2012-09-12 13:29:00,86.4,73.2,30.10,ESE,106,4.0,9.0,65,0.00,,---,0.01,176.00,VWS V14.01,2012-09-12 17:29:00,
2012-09-12 13:34:00,85.1,72.9,30.10,ENE,75,9.0,16.0,67,0.00,,---,0.01,151.00,VWS V14.01,2012-09-12 17:34:00,
2012-09-12 13:39:00,83.6,72.8,30.10,East,95,9.0,16.0,70,0.00,,---,0.01,225.00,VWS V14.01,2012-09-12 17:39:00,
2012-09-12 13:45:00,82.7,74.4,30.10,NE,44,5.0,16.0,76,0.00,,---,0.01,429.00,VWS V14.01,2012-09-12 17:45:00,
2012-09-12 13:50:00,82.3,75.1,30.10,ENE,64,5.0,16.0,79,0.00,,---,0.01,408.00,VWS V14.01,2012-09-12 17:50:00,
2012-09-12 13:55:00,83.3,74.9,30.10,NE,51,2.0,16.0,76,0.00,,---,0.01,302.00,VWS V14.01,2012-09-12 17:55:00,
2012-09-12 14:00:00,83.2,74.5,30.10,ENE,59,5.0,16.0,75,0.00,,---,0.01,269.00,VWS V14.01,2012-09-12 18:00:00,
2012-09-12 14:05:00,83.4,74.7,30.10,ESE,104,4.0,16.0,75,0.00,,---,0.01,278.00,VWS V14.01,2012-09-12 18:05:00,
2012-09-12 14:10:00,83.4,73.0,30.09,NNW,338,6.0,15.0,71,0.00,,---,0.01,281.00,VWS V14.01,2012-09-12 18:10:00,
2012-09-12 14:15:00,83.4,71.7,30.09,North,3,4.0,15.0,68,0.00,,---,0.01,290.00,VWS V14.01,2012-09-12 18:15:00,
2012-09-12 14:20:00,83.6,71.5,30.09,NW,324,3.0,16.0,67,0.00,,---,0.01,568.00,VWS V14.01,2012-09-12 18:20:00,
2012-09-12 14:25:00,84.8,72.6,30.08,NE,54,1.0,16.0,67,0.00,,---,0.01,1007.00,VWS V14.01,2012-09-12 18:25:00,
2012-09-12 14:30:00,85.4,71.4,30.08,ESE,105,11.0,19.0,63,0.00,,---,0.01,923.00,VWS V14.01,2012-09-12 18:30:00,
2012-09-12 14:35:00,85.6,72.0,30.08,NE,54,10.0,19.0,64,0.00,,---,0.01,946.00,VWS V14.01,2012-09-12 18:35:00,
2012-09-12 14:40:00,86.2,72.6,30.08,ENE,68,6.0,19.0,64,0.00,,---,0.01,949.00,VWS V14.01,2012-09-12 18:40:00,
2012-09-12 14:45:00,86.5,71.0,30.08,SW,236,4.0,19.0,60,0.00,,---,0.01,1014.00,VWS V14.01,2012-09-12 18:45:00,
2012-09-12 14:50:00,86.4,70.9,30.08,NNE,30,3.0,19.0,60,0.00,,---,0.01,1009.00,VWS V14.01,2012-09-12 18:50:00,
2012-09-12 14:55:00,86.1,71.6,30.08,SSE,153,7.0,19.0,62,0.00,,---,0.01,346.00,VWS V14.01,2012-09-12 18:55:00,
2012-09-12 15:00:00,86.7,71.2,30.08,ESE,118,7.0,19.0,60,0.00,,---,0.01,847.00,VWS V14.01,2012-09-12 19:00:00,
2012-09-12 15:05:00,86.7,72.6,30.08,SE,139,4.0,19.0,63,0.00,,---,0.01,557.00,VWS V14.01,2012-09-12 19:05:00,
2012-09-12 15:10:00,85.9,70.9,30.08,ENE,58,5.0,15.0,61,0.00,,---,0.01,427.00,VWS V14.01,2012-09-12 19:10:00,
2012-09-12 15:15:00,85.0,71.5,30.08,NNW,338,2.0,15.0,64,0.00,,---,0.01,320.00,VWS V14.01,2012-09-12 19:15:00,
2012-09-12 15:20:00,84.3,71.7,30.08,SSE,154,4.0,15.0,66,0.00,,---,0.01,350.00,VWS V14.01,2012-09-12 19:20:00,
2012-09-12 15:25:00,84.4,72.7,30.07,NNE,23,0.0,15.0,68,0.00,,---,0.01,360.00,VWS V14.01,2012-09-12 19:25:00,
2012-09-12 15:30:00,84.7,71.2,30.07,ESE,107,7.0,15.0,64,0.00,,---,0.01,418.00,VWS V14.01,2012-09-12 19:30:00,
2012-09-12 15:35:00,85.4,70.9,30.07,SE,143,1.0,19.0,62,0.00,,---,0.01,418.00,VWS V14.01,2012-09-12 19:35:00,
2012-09-12 15:40:00,84.8,71.3,30.07,ESE,106,5.0,19.0,64,0.00,,---,0.01,330.00,VWS V14.01,2012-09-12 19:40:00,
2012-09-12 15:45:00,84.3,72.2,30.07,ESE,112,3.0,19.0,67,0.00,,---,0.01,265.00,VWS V14.01,2012-09-12 19:45:00,
2012-09-12 15:50:00,83.8,73.0,30.07,NE,40,6.0,19.0,70,0.00,,---,0.01,265.00,VWS V14.01,2012-09-12 19:50:00,
2012-09-12 15:55:00,83.8,73.4,30.07,East,92,4.0,19.0,71,0.00,,---,0.01,304.00,VWS V14.01,2012-09-12 19:55:00,
2012-09-12 16:00:00,84.1,74.1,30.07,NE,36,2.0,19.0,72,0.00,,---,0.01,408.00,VWS V14.01,2012-09-12 20:00:00,
2012-09-12 16:05:00,84.4,74.0,30.07,NNE,15,3.0,19.0,71,0.00,,---,0.01,360.00,VWS V14.01,2012-09-12 20:05:00,
2012-09-12 16:10:00,84.1,74.5,30.06,NE,39,1.0,7.0,73,0.00,,---,0.01,243.00,VWS V14.01,2012-09-12 20:10:00,
2012-09-12 16:15:00,83.6,74.0,30.06,NNE,22,2.0,12.0,73,0.01,,---,0.02,214.00,VWS V14.01,2012-09-12 20:15:00,
2012-09-12 16:20:00,84.0,74.4,30.06,East,98,6.0,12.0,73,0.01,,---,0.02,221.00,VWS V14.01,2012-09-12 20:20:00,
2012-09-12 16:25:00,84.8,73.9,30.06,East,83,5.0,12.0,70,0.01,,---,0.02,197.00,VWS V14.01,2012-09-12 20:25:00,
2012-09-12 16:30:00,84.2,72.9,30.06,East,93,2.0,12.0,69,0.01,,---,0.02,244.00,VWS V14.01,2012-09-12 20:30:00,
2012-09-12 16:35:00,84.1,73.3,30.06,ENE,60,1.0,12.0,70,0.01,,---,0.02,311.00,VWS V14.01,2012-09-12 20:35:00,
2012-09-12 16:40:00,84.2,72.9,30.06,NE,48,3.0,12.0,69,0.01,,---,0.02,241.00,VWS V14.01,2012-09-12 20:40:00,
2012-09-12 16:45:00,83.9,73.5,30.06,NE,53,5.0,12.0,71,0.01,,---,0.02,251.00,VWS V14.01,2012-09-12 20:45:00,
2012-09-12 16:51:00,83.9,73.1,30.06,NE,50,6.0,12.0,70,0.01,,---,0.02,200.00,VWS V14.01,2012-09-12 20:51:00,
2012-09-12 16:56:00,84.1,72.8,30.06,ENE,66,2.0,12.0,69,0.01,,---,0.02,132.00,VWS V14.01,2012-09-12 20:56:00,
2012-09-12 17:00:00,84.3,74.3,30.07,NE,52,4.0,19.0,72,0.00,,---,0.01,299.00,VWS V14.01,2012-09-12 21:00:00,
2012-09-12 17:01:00,84.3,73.5,30.06,SE,135,5.0,12.0,70,0.01,,---,0.02,98.00,VWS V14.01,2012-09-12 21:01:00,
2012-09-12 17:06:00,84.3,74.3,30.06,NNE,29,4.0,12.0,72,0.01,,---,0.02,162.00,VWS V14.01,2012-09-12 21:06:00,
2012-09-12 17:11:00,83.9,73.9,30.06,ENE,75,7.0,8.0,72,0.01,,---,0.02,160.00,VWS V14.01,2012-09-12 21:11:00,
2012-09-12 17:16:00,83.9,74.7,30.06,NE,54,1.0,8.0,74,0.01,,---,0.02,220.00,VWS V14.01,2012-09-12 21:16:00,
2012-09-12 17:21:00,84.0,74.8,30.06,ENE,75,9.0,9.0,74,0.01,,---,0.02,113.00,VWS V14.01,2012-09-12 21:21:00,
2012-09-12 17:26:00,83.2,74.5,30.07,East,95,3.0,9.0,75,0.01,,---,0.02,76.00,VWS V14.01,2012-09-12 21:26:00,
2012-09-12 17:31:00,82.0,70.4,30.07,North,358,6.0,15.0,68,0.01,,---,0.02,86.00,VWS V14.01,2012-09-12 21:31:00,
2012-09-12 17:36:00,80.5,69.8,30.07,NE,44,1.0,15.0,70,0.01,,---,0.02,95.00,VWS V14.01,2012-09-12 21:36:00,
2012-09-12 17:41:00,80.0,71.0,30.07,NNE,22,1.0,15.0,74,0.01,,---,0.02,118.00,VWS V14.01,2012-09-12 21:41:00,
2012-09-12 17:47:00,80.0,71.0,30.07,East,91,0.0,15.0,74,0.01,,---,0.02,120.00,VWS V14.01,2012-09-12 21:47:00,
2012-09-12 17:52:00,80.1,71.1,30.07,ENE,57,5.0,15.0,74,0.01,,---,0.02,128.00,VWS V14.01,2012-09-12 21:52:00,
2012-09-12 17:57:00,80.2,71.2,30.06,ENE,68,4.0,15.0,74,0.01,,---,0.02,137.00,VWS V14.01,2012-09-12 21:57:00,
2012-09-12 18:00:00,84.2,74.2,30.06,ESE,108,0.0,12.0,72,0.01,,---,0.02,163.00,VWS V14.01,2012-09-12 22:00:00,
2012-09-12 18:02:00,80.5,71.5,30.06,NE,52,2.0,15.0,74,0.01,,---,0.02,128.00,VWS V14.01,2012-09-12 22:02:00,
2012-09-12 18:07:00,81.0,71.1,30.06,ESE,105,5.0,15.0,72,0.01,,---,0.02,104.00,VWS V14.01,2012-09-12 22:07:00,
2012-09-12 18:12:00,81.0,70.7,30.06,ESE,108,3.0,7.0,71,0.00,,---,0.02,91.00,VWS V14.01,2012-09-12 22:12:00,
2012-09-12 18:17:00,81.1,71.2,30.06,East,79,2.0,8.0,72,0.00,,---,0.02,70.00,VWS V14.01,2012-09-12 22:17:00,
2012-09-12 18:22:00,81.1,71.6,30.06,NNE,18,0.0,8.0,73,0.00,,---,0.02,65.00,VWS V14.01,2012-09-12 22:22:00,
2012-09-12 18:27:00,81.0,71.5,30.06,ENE,67,2.0,8.0,73,0.00,,---,0.02,60.00,VWS V14.01,2012-09-12 22:27:00,
2012-09-12 18:32:00,81.0,71.9,30.06,ESE,120,3.0,8.0,74,0.00,,---,0.02,63.00,VWS V14.01,2012-09-12 22:32:00,
2012-09-12 18:37:00,80.9,71.4,30.06,ENE,77,1.0,8.0,73,0.00,,---,0.02,58.00,VWS V14.01,2012-09-12 22:37:00,
2012-09-12 18:42:00,80.9,71.8,30.06,ENE,58,1.0,8.0,74,0.00,,---,0.02,60.00,VWS V14.01,2012-09-12 22:42:00,
2012-09-12 18:47:00,80.7,72.0,30.06,NE,38,2.0,8.0,75,0.00,,---,0.02,62.00,VWS V14.01,2012-09-12 22:47:00,
2012-09-12 18:52:00,80.6,71.9,30.06,NE,54,2.0,8.0,75,0.00,,---,0.02,62.00,VWS V14.01,2012-09-12 22:52:00,
2012-09-12 18:57:00,80.6,72.3,30.06,ENE,64,0.0,8.0,76,0.00,,---,0.02,58.00,VWS V14.01,2012-09-12 22:57:00,
2012-09-12 19:00:00,81.0,71.1,30.06,North,5,1.0,15.0,72,0.01,,---,0.02,102.00,VWS V14.01,2012-09-12 23:00:00,
2012-09-12 19:02:00,80.5,72.6,30.06,NE,54,4.0,8.0,77,0.00,,---,0.02,49.00,VWS V14.01,2012-09-12 23:02:00,
2012-09-12 19:07:00,80.5,72.6,30.06,NE,54,1.0,8.0,77,0.00,,---,0.02,39.00,VWS V14.01,2012-09-12 23:07:00,
2012-09-12 19:12:00,80.5,72.6,30.06,ENE,72,2.0,2.0,77,0.00,,---,0.02,30.00,VWS V14.01,2012-09-12 23:12:00,
2012-09-12 19:17:00,80.5,72.6,30.06,East,95,5.0,5.0,77,0.00,,---,0.02,19.00,VWS V14.01,2012-09-12 23:17:00,
2012-09-12 19:22:00,80.5,72.6,30.06,ENE,72,3.0,6.0,77,0.00,,---,0.02,12.00,VWS V14.01,2012-09-12 23:22:00,
2012-09-12 19:27:00,80.4,72.9,30.06,ENE,78,3.0,6.0,78,0.00,,---,0.02,5.00,VWS V14.01,2012-09-12 23:27:00,
2012-09-12 19:32:00,80.3,72.8,30.06,ENE,75,4.0,6.0,78,0.00,,---,0.02,0.00,VWS V14.01,2012-09-12 23:32:00,
2012-09-12 19:37:00,80.2,73.1,30.06,ENE,63,2.0,6.0,79,0.00,,---,0.02,0.00,VWS V14.01,2012-09-12 23:37:00,
2012-09-12 19:42:00,80.1,73.0,30.06,East,98,2.0,6.0,79,0.00,,---,0.02,0.00,VWS V14.01,2012-09-12 23:42:00,
2012-09-12 19:47:00,80.0,73.3,30.06,ENE,66,2.0,6.0,80,0.00,,---,0.02,0.00,VWS V14.01,2012-09-12 23:47:00,
2012-09-12 19:52:00,79.9,73.6,30.06,NE,46,2.0,6.0,81,0.00,,---,0.02,0.00,VWS V14.01,2012-09-12 23:52:00,
2012-09-12 19:57:00,79.8,73.4,30.06,NE,46,1.0,6.0,81,0.00,,---,0.02,0.00,VWS V14.01,2012-09-12 23:57:00,
2012-09-12 20:00:00,80.5,72.6,30.06,NE,49,0.0,8.0,77,0.00,,---,0.02,39.00,VWS V14.01,2012-09-13 00:00:00,
2012-09-12 20:02:00,79.7,73.4,30.06,East,95,1.0,6.0,81,0.00,,---,0.02,0.00,VWS V14.01,2012-09-13 00:02:00,
2012-09-12 20:07:00,79.6,73.6,30.06,ENE,60,6.0,6.0,82,0.00,,---,0.02,0.00,VWS V14.01,2012-09-13 00:07:00,
2012-09-12 20:12:00,79.5,73.5,30.07,ESE,116,1.0,5.0,82,0.00,,---,0.02,0.00,VWS V14.01,2012-09-13 00:12:00,
2012-09-12 20:17:00,79.4,73.8,30.07,ENE,69,3.0,5.0,83,0.00,,---,0.02,0.00,VWS V14.01,2012-09-13 00:17:00,
2012-09-12 20:22:00,79.4,73.8,30.07,ENE,66,3.0,5.0,83,0.00,,---,0.02,0.00,VWS V14.01,2012-09-13 00:22:00,
2012-09-12 20:27:00,79.3,74.1,30.07,ENE,60,0.0,5.0,84,0.00,,---,0.02,0.00,VWS V14.01,2012-09-13 00:27:00,
2012-09-12 20:32:00,79.1,73.8,30.07,ESE,112,7.0,7.0,84,0.00,,---,0.02,0.00,VWS V14.01,2012-09-13 00:32:00,
2012-09-12 20:37:00,79.1,73.5,30.07,ESE,118,2.0,7.0,83,0.00,,---,0.02,0.00,VWS V14.01,2012-09-13 00:37:00,
2012-09-12 20:42:00,79.0,73.0,30.07,ENE,66,4.0,7.0,82,0.00,,---,0.02,0.00,VWS V14.01,2012-09-13 00:42:00,
2012-09-12 20:47:00,79.0,72.7,30.07,SE,126,1.0,7.0,81,0.00,,---,0.02,0.00,VWS V14.01,2012-09-13 00:47:00,
2012-09-12 20:52:00,78.9,72.2,30.07,North,353,0.0,7.0,80,0.00,,---,0.02,0.00,VWS V14.01,2012-09-13 00:52:00,
2012-09-12 20:57:00,78.8,72.1,30.07,East,83,4.0,7.0,80,0.00,,---,0.02,0.00,VWS V14.01,2012-09-13 00:57:00,
2012-09-12 21:00:00,79.6,73.6,30.06,ENE,58,2.0,6.0,82,0.00,,---,0.02,0.00,VWS V14.01,2012-09-13 01:00:00,
2012-09-12 21:02:00,78.8,71.4,30.07,ESE,122,2.0,7.0,78,0.00,,---,0.02,0.00,VWS V14.01,2012-09-13 01:02:00,
2012-09-12 21:07:00,78.7,71.3,30.08,ENE,75,3.0,7.0,78,0.00,,---,0.02,0.00,VWS V14.01,2012-09-13 01:07:00,
2012-09-12 21:12:00,78.5,71.4,30.08,ENE,57,2.0,4.0,79,0.00,,---,0.02,0.00,VWS V14.01,2012-09-13 01:12:00,
2012-09-12 21:17:00,78.4,71.3,30.08,ESE,114,0.0,6.0,79,0.00,,---,0.02,0.00,VWS V14.01,2012-09-13 01:17:00,
2012-09-12 21:22:00,78.3,70.9,30.08,NE,41,1.0,8.0,78,0.00,,---,0.02,0.00,VWS V14.01,2012-09-13 01:22:00,
2012-09-12 21:27:00,78.2,70.8,30.08,SE,142,2.0,8.0,78,0.00,,---,0.02,0.00,VWS V14.01,2012-09-13 01:27:00,
2012-09-12 21:32:00,78.2,70.8,30.08,ENE,68,0.0,8.0,78,0.00,,---,0.02,0.00,VWS V14.01,2012-09-13 01:32:00,
2012-09-12 21:37:00,78.1,71.1,30.08,East,91,3.0,8.0,79,0.00,,---,0.02,0.00,VWS V14.01,2012-09-13 01:37:00,
2012-09-12 21:42:00,78.0,71.0,30.08,NE,56,3.0,8.0,79,0.00,,---,0.02,0.00,VWS V14.01,2012-09-13 01:42:00,
2012-09-12 21:47:00,77.9,71.2,30.09,ENE,61,2.0,8.0,80,0.00,,---,0.02,0.00,VWS V14.01,2012-09-13 01:47:00,
2012-09-12 21:52:00,77.7,71.0,30.08,NNE,20,4.0,8.0,80,0.00,,---,0.02,0.00,VWS V14.01,2012-09-13 01:52:00,
2012-09-12 21:57:00,77.5,71.2,30.08,East,100,2.0,8.0,81,0.00,,---,0.02,0.00,VWS V14.01,2012-09-13 01:57:00,
2012-09-12 22:00:00,78.7,71.3,30.08,ENE,58,4.0,7.0,78,0.00,,---,0.02,0.00,VWS V14.01,2012-09-13 02:00:00,
2012-09-12 22:03:00,77.2,70.9,30.08,East,95,2.0,8.0,81,0.00,,---,0.02,0.00,VWS V14.01,2012-09-13 02:03:00,
2012-09-12 22:07:00,77.0,70.7,30.08,NE,50,3.0,8.0,81,0.00,,---,0.02,0.00,VWS V14.01,2012-09-13 02:07:00,
2012-09-12 22:13:00,76.9,71.0,30.09,NE,54,0.0,5.0,82,0.00,,---,0.02,0.00,VWS V14.01,2012-09-13 02:13:00,
2012-09-12 22:18:00,76.7,71.2,30.08,ENE,75,1.0,5.0,83,0.00,,---,0.02,0.00,VWS V14.01,2012-09-13 02:18:00,
2012-09-12 22:23:00,76.5,71.0,30.08,ENE,70,2.0,5.0,83,0.00,,---,0.02,0.00,VWS V14.01,2012-09-13 02:23:00,
2012-09-12 22:28:00,76.5,71.3,30.09,East,87,1.0,5.0,84,0.00,,---,0.02,0.00,VWS V14.01,2012-09-13 02:28:00,
2012-09-12 22:33:00,76.4,71.2,30.09,ENE,66,3.0,5.0,84,0.00,,---,0.02,0.00,VWS V14.01,2012-09-13 02:33:00,
2012-09-12 22:38:00,76.4,71.2,30.09,ENE,66,2.0,5.0,84,0.00,,---,0.02,0.00,VWS V14.01,2012-09-13 02:38:00,
2012-09-12 22:43:00,76.4,71.2,30.09,North,2,1.0,5.0,84,0.00,,---,0.02,0.00,VWS V14.01,2012-09-13 02:43:00,
2012-09-12 22:48:00,76.3,71.5,30.09,NE,56,0.0,5.0,85,0.00,,---,0.02,0.00,VWS V14.01,2012-09-13 02:48:00,
2012-09-12 22:53:00,76.2,71.4,30.09,NE,38,2.0,5.0,85,0.00,,---,0.02,0.00,VWS V14.01,2012-09-13 02:53:00,
2012-09-12 22:58:00,76.1,71.3,30.09,NE,54,2.0,5.0,85,0.00,,---,0.02,0.00,VWS V14.01,2012-09-13 02:58:00,
2012-09-12 23:00:00,77.0,70.7,30.08,NE,50,3.0,8.0,81,0.00,,---,0.02,0.00,VWS V14.01,2012-09-13 03:00:00,
2012-09-12 23:03:00,76.1,71.3,30.09,NE,40,1.0,5.0,85,0.00,,---,0.02,0.00,VWS V14.01,2012-09-13 03:03:00,
2012-09-12 23:08:00,76.0,71.2,30.10,NE,42,2.0,2.0,85,0.00,,---,0.02,0.00,VWS V14.01,2012-09-13 03:08:00,
2012-09-12 23:13:00,75.9,71.4,30.09,ESE,106,2.0,5.0,86,0.00,,---,0.02,0.00,VWS V14.01,2012-09-13 03:13:00,
2012-09-12 23:18:00,75.9,71.4,30.09,NE,39,4.0,5.0,86,0.00,,---,0.02,0.00,VWS V14.01,2012-09-13 03:18:00,
2012-09-12 23:23:00,75.8,71.3,30.09,ESE,109,3.0,6.0,86,0.00,,---,0.02,0.00,VWS V14.01,2012-09-13 03:23:00,
2012-09-12 23:28:00,75.9,71.4,30.09,East,91,1.0,6.0,86,0.00,,---,0.02,0.00,VWS V14.01,2012-09-13 03:28:00,
2012-09-12 23:33:00,75.8,71.3,30.09,East,88,1.0,8.0,86,0.00,,---,0.02,0.00,VWS V14.01,2012-09-13 03:33:00,
2012-09-12 23:38:00,75.7,71.2,30.09,East,97,3.0,8.0,86,0.00,,---,0.02,0.00,VWS V14.01,2012-09-13 03:38:00,
2012-09-12 23:43:00,75.7,71.2,30.09,ESE,112,1.0,8.0,86,0.00,,---,0.02,0.00,VWS V14.01,2012-09-13 03:43:00,
2012-09-12 23:48:00,75.7,71.2,30.09,East,89,1.0,8.0,86,0.00,,---,0.02,0.00,VWS V14.01,2012-09-13 03:48:00,
2012-09-12 23:53:00,75.7,71.6,30.09,ENE,76,2.0,8.0,87,0.00,,---,0.02,0.00,VWS V14.01,2012-09-13 03:53:00,
2012-09-12 23:58:00,75.6,71.5,30.10,East,85,1.0,8.0,87,0.00,,---,0.02,0.00,VWS V14.01,2012-09-13 03:58:00,